sat.trackr.live / text

‹ back to catalog

STARLINK-37630

NORAD 69301 · 2026-119F

PAYLOAD ACTIVE UNKNOWN

§ Identity

Operator
Country
US
Launch date
2026-05-30
Launch site
AFWTR
Launch vehicle
Mass (kg)
RCS (m²)

Purposes: comms

External: N2YO · Heavens-Above · Gunter

§ Orbital elements

Epoch: 2026-09-20T01:26:39.520032Z

Period
93.91 min
Inclination
97.2830°
Eccentricity
0.0000255
Mean motion
15.33452896 rev/d
Perigee alt
465.3 km
Apogee alt
465.7 km
Semi-major
6,843.7 km
B*
5.9361e-4
RAAN
287.7650°
Arg perigee
126.4070°
Mean anomaly
233.7196°
Rev number
1,859

§ Raw data

STARLINK-376301 69301U 26119F   26263.06017963  .00019142  00000+0  59361-3 0  99922 69301  97.2830 287.7650 0000255 126.4070 233.7196 15.33452896 18597

JSON: /api/v1/satellites/69301 · /tle

For live sub-satellite position, see the globe view (requires WebGL).

§ Visibility from observer

Set your observer location to see the next 7 days of passes ≥ 10°. The values pass through the URL so the page stays shareable.

No JS? Fill the form by hand. The geolocation button needs JavaScript.